Temp
2 2 2 2 2 2 2 2 2 1 1 1 1 1 1 0 0 0 0 0 0 0 0 0 1 1 1 1 1 1 1 1 1 1 1 1 1 1 1 1 1 1 1 1 1 1 1 1 0 0 0 0 0 0 0 0 0 0 0 0 0 0 0 1 1 1 1 1 1 1 1 1 1 1 1 1 1 1 1 1 1 1 1 1 2 2
1 1 1 1 1 1 1 1 1 1 1 1 1 1 1 0 0 0 0 0 0 0 0 1 1 1 1 1 1 1 0 0 0 1 1 1 0 0 1 1 1 1 0 0 0 0 0 0 0 0 0 0 0 0 0 0 0 0 0 0 0 0 0 0 0 0 1 1 1 1 1 1 1 1 1 1 1 1 1 1 1 1 1 1 2 2
1 1 1 1 0 0 0 0 0 0 1 1 1 1 0 0 0 0 0 0 0 1 1 1 1 1 1 1 1 1 0 0 0 0 0 0 0 0 0 0 0 0 0 0 0 0 0 0 0 0 0 0 0 0 0 0 0 0 0 0 0 0 0 0 0 0 0 0 0 0 0 0 0 0 0 0 0 1 1 1 1 1 1 1 1 1
0 0 0 0 0 0 0 0 0 0 0 0 0 0 0 0 1 1 1 1 1 1 1 1 1 1 1 1 1 0 0 0 0 0 0 0 0 0 0 0 -0 -0 -0 -0 -0 0 0 0 0 0 0 0 0 0 0 0 0 0 0 0 0 0 0 0 0 0 0 0 0 0 0 0 0 0 0 0 0 0 1 1 1 1 1 1 1 1
-0 -0 -0 -0 -0 -0 -0 0 0 0 0 0 0 0 1 1 1 1 1 1 1 1 1 1 1 1 1 1 0 0 0 0 -0 -0 -0 -0 -0 -0 -0 -0 -0 -0 -0 -0 -0 -0 -0 -0 0 0 0 0 0 0 0 0 0 0 0 0 0 0 0 0 0 0 0 0 0 0 0 0 0 0 0 0 0 0 0 0 0 1 1 1 1 1
-0 0 0 0 0 -0 0 0 0 0 0 1 1 1 1 1 1 1 1 1 1 1 1 1 1 1 1 0 0 0 0 -0 -0 -0 -0 -0 -0 -1 -1 -1 -1 -1 -1 -0 -0 -0 -0 -0 -0 0 0 0 0 0 0 0 0 0 0 0 0 0 0 0 0 0 0 0 0 0 -0 -0 -0 -0 -0 -0 -0 -0 0 0 0 0 0 0 1 1
0 0 1 1 1 1 1 1 1 1 1 1 1 1 1 1 1 1 1 1 1 1 1 1 1 1 1 0 0 -0 -0 -0 -0 -0 -0 -1 -1 -1 -1 -1 -1 -1 -1 -1 -0 -0 -0 -0 -0 0 0 0 0 0 0 0 0 0 0 0 0 0 0 0 0 0 0 0 -0 -0 -0 -0 -0 -0 -0 -0 -0 -0 -0 -0 0 0 0 0 0 1
0 0 1 1 1 1 1 1 1 1 1 1 1 1 1 1 1 1 1 1 1 1 1 1 1 1 0 0 -0 -0 -0 -0 -0 -0 -0 -0 -1 -1 -1 -1 -1 -1 -1 -1 -1 -0 -0 -0 -0 -0 -0 0 0 0 0 -0 -0 -0 -0 -0 -0 -0 -0 -0 -0 -0 -0 -0 -0 -0 -0 -0 -0 -0 -0 -0 -0 -0 -0 -0 -0 -0 0 0 0 0
0 0 1 1 1 1 1 1 1 1 1 1 1 1 1 1 1 1 1 1 1 1 1 1 0 0 0 -0 -0 -0 -0 -0 -0 -0 -0 -1 -1 -1 -1 -1 -1 -1 -1 -1 -1 -1 -0 -0 -0 -0 -0 -0 -0 -0 -0 -0 -0 -0 -1 -1 -1 -1 -1 -0 -0 -0 -0 -0 -0 -0 -0 -0 -0 -0 -0 -0 -0 -0 -0 -0 -0 -0 -0 -0 0 0
0 0 0 1 1 1 1 1 1 1 1 1 1 1 1 1 1 1 1 1 1 1 1 0 0 0 -0 -0 -0 -0 -0 -0 -0 -0 -0 -1 -1 -1 -1 -1 -1 -1 -1 -1 -1 -1 -1 -1 -1 -1 -1 -1 -1 -1 -1 -1 -1 -1 -1 -1 -1 -1 -1 -1 -1 -0 -0 -0 -0 -0 -0 -0 -0 -0 -0 -0 -0 -0 -0 -0 -0 -0 -0 -0 -0 0
0 0 1 1 1 1 1 1 1 1 1 1 1 1 1 1 1 1 1 1 1 1 0 0 0 -0 -0 -0 -0 -0 -0 -0 -0 -0 -1 -1 -1 -1 -1 -1 -1 -1 -1 -1 -1 -1 -1 -1 -1 -1 -1 -1 -1 -1 -1 -1 -1 -1 -1 -1 -1 -1 -1 -1 -1 -1 -0 -0 -0 -0 -0 -0 -0 -0 -0 -0 -0 -0 -0 -0 -0 -0 -0 -0 -0 -0
0 0 1 1 1 1 1 1 1 1 1 1 1 1 1 1 1 1 1 1 1 0 0 -0 -0 -0 -0 -0 -0 -0 -0 -0 -1 -1 -1 -1 -1 -1 -1 -1 -1 -1 -1 -1 -1 -1 -1 -1 -1 -1 -1 -1 -1 -1 -1 -1 -1 -1 -1 -1 -1 -1 -1 -1 -1 -1 -0 -0 -0 -0 -0 -0 -0 -0 -0 -0 -0 -0 -0 -0 -0 -0 -0 -0 -0 -0
0 0 0 1 1 1 1 1 1 1 1 1 1 1 1 1 1 1 1 0 0 -0 -0 -0 -0 -1 -1 -1 -1 -1 -1 -1 -1 -1 -2 -2 -2 -2 -2 -2 -2 -2 -2 -1 -1 -1 -1 -1 -1 -1 -1 -1 -1 -1 -1 -1 -1 -1 -1 -1 -1 -1 -1 -1 -1 -1 -0 -0 -0 -0 -0 -0 -0 -0 -0 -0 -0 -0 -0 -0 -0 -0 -0 -0 -0 -0
-0 0 0 0 1 1 1 1 1 1 1 1 1 1 1 1 1 1 0 0 -0 -0 -1 -1 -1 -1 -1 -1 -1 -1 -1 -2 -2 -2 -2 -2 -2 -2 -2 -2 -2 -2 -2 -2 -1 -1 -1 -1 -1 -1 -1 -1 -1 -1 -1 -1 -1 -1 -2 -1 -1 -1 -1 -1 -1 -1 -0 -0 -0 -0 -0 -0 -0 -0 -0 -0 -0 -0 -0 -0 -0 -0 -0 -0 -0 -0
-0 0 0 0 0 1 1 1 1 1 1 1 1 1 1 1 0 0 0 -0 -0 -1 -1 -1 -1 -1 -1 -1 -1 -2 -2 -2 -2 -2 -2 -2 -2 -2 -2 -2 -2 -2 -2 -2 -1 -1 -1 -1 -1 -1 -1 -1 -1 -2 -2 -2 -2 -2 -2 -1 -1 -1 -1 -1 -1 -1 -0 -0 -0 -0 -0 -0 -0 -0 -0 -0 -0 -0 -0 -0 -0 -0 -0 -0 -0 -0
-0 0 0 0 0 1 1 1 1 1 1 1 1 1 1 0 0 -0 -0 -0 -1 -1 -1 -1 -1 -1 -1 -1 -2 -2 -2 -2 -3 -3 -3 -3 -3 -2 -2 -2 -2 -2 -2 -2 -1 -1 -1 -1 -1 -1 -2 -2 -2 -2 -2 -2 -2 -2 -1 -1 -1 -1 -1 -1 -1 -1 -1 -0 -0 -0 -0 -0 -0 -0 -0 -0 -0 -0 -0 -0 -0 -0 -0 -0 -0 -0
0 0 0 0 1 1 1 1 1 1 1 1 1 1 0 0 -0 -0 -1 -1 -1 -1 -1 -2 -2 -2 -2 -2 -2 -2 -3 -3 -3 -3 -3 -3 -3 -3 -3 -3 -3 -2 -2 -2 -1 -1 -1 -1 -1 -2 -2 -2 -2 -2 -2 -2 -2 -2 -1 -1 -1 -1 -1 -1 -1 -1 -1 -1 -1 -1 -1 -1 -1 -0 -0 -0 -0 -0 -0 -0 -0 -0 -0 -0 -0 -0
0 1 1 1 1 1 1 1 1 1 1 1 0 0 -0 -0 -1 -1 -1 -1 -1 -2 -2 -2 -2 -3 -3 -3 -2 -2 -3 -3 -3 -4 -4 -4 -3 -3 -3 -3 -3 -3 -2 -2 -1 -1 -1 -2 -2 -2 -2 -2 -2 -2 -2 -2 -2 -2 -2 -1 -1 -1 -1 -1 -1 -1 -1 -1 -1 -1 -1 -1 -1 -1 -1 -1 -1 -0 -0 -0 -0 -0 -0 -0 -0 -0
1 1 1 1 1 1 1 0 0 0 0 0 -0 -0 -0 -1 -1 -1 -1 -2 -2 -2 -2 -3 -3 -3 -3 -3 -3 -3 -3 -3 -4 -4 -4 -4 -4 -3 -3 -3 -3 -2 -2 -2 -1 -1 -2 -2 -2 -2 -2 -2 -2 -2 -2 -2 -2 -2 -2 -2 -1 -1 -1 -1 -1 -1 -1 -1 -1 -1 -1 -1 -1 -1 -1 -1 -1 -1 -0 -0 -0 -0 -0 -0 -0 -0
0 0 0 0 0 0 0 -0 -0 -0 -0 -0 -1 -1 -1 -1 -1 -1 -2 -2 -2 -2 -3 -3 -3 -3 -3 -3 -3 -3 -4 -4 -4 -4 -4 -4 -4 -4 -3 -3 -3 -3 -2 -2 -1 -1 -2 -2 -2 -2 -2 -2 -2 -2 -2 -2 -2 -2 -2 -2 -2 -2 -2 -2 -2 -2 -2 -1 -1 -1 -1 -1 -1 -1 -1 -1 -1 -1 -1 -0 -0 -0 -0 -0 -0 -0
-0 -0 -0 -0 -0 -0 -1 -1 -1 -1 -1 -1 -1 -1 -1 -1 -2 -2 -2 -2 -2 -3 -3 -3 -3 -3 -3 -3 -4 -4 -4 -4 -4 -4 -4 -4 -4 -4 -3 -3 -3 -3 -3 -2 -2 -2 -2 -2 -2 -2 -2 -2 -2 -2 -2 -2 -2 -2 -2 -2 -2 -2 -2 -2 -2 -2 -2 -2 -2 -1 -1 -1 -1 -1 -1 -1 -1 -1 -1 -1 -1 -1 -0 -0 -0 -0
-1 -1 -1 -1 -1 -1 -1 -1 -1 -1 -1 -1 -1 -1 -2 -2 -2 -2 -2 -2 -3 -3 -3 -3 -3 -4 -4 -4 -4 -4 -4 -4 -4 -4 -5 -4 -4 -4 -3 -3 -3 -3 -3 -2 -2 -2 -2 -2 -2 -2 -2 -2 -2 -2 -2 -2 -2 -2 -2 -2 -2 -2 -2 -2 -2 -2 -2 -2 -2 -2 -2 -1 -1 -1 -1 -1 -1 -1 -1 -1 -1 -1 -1 -1 -1 -1
-1 -1 -1 -1 -1 -1 -1 -1 -1 -2 -2 -2 -2 -2 -2 -2 -2 -2 -3 -3 -3 -3 -3 -4 -4 -4 -4 -4 -4 -4 -4 -4 -4 -4 -5 -5 -4 -4 -3 -3 -3 -3 -3 -3 -3 -2 -2 -2 -2 -2 -2 -2 -2 -2 -2 -2 -2 -2 -2 -2 -2 -2 -2 -2 -2 -2 -2 -2 -2 -2 -2 -2 -2 -2 -2 -2 -1 -1 -1 -1 -1 -1 -1 -1 -1 -1
-1 -1 -1 -1 -1 -1 -2 -2 -2 -2 -2 -2 -2 -2 -2 -2 -3 -3 -3 -3 -3 -4 -4 -4 -4 -4 -4 -4 -4 -4 -4 -4 -4 -4 -4 -4 -4 -4 -4 -3 -3 -3 -3 -3 -3 -3 -3 -2 -2 -2 -2 -2 -2 -2 -2 -2 -3 -3 -3 -3 -3 -3 -3 -2 -2 -2 -2 -2 -2 -2 -2 -2 -2 -2 -2 -2 -2 -1 -1 -1 -1 -1 -1 -1 -1 -1
-2 -2 -2 -2 -2 -2 -2 -2 -2 -2 -2 -2 -2 -2 -2 -3 -3 -3 -3 -3 -4 -4 -4 -4 -4 -4 -5 -5 -5 -5 -4 -4 -4 -4 -4 -4 -4 -4 -4 -4 -4 -4 -4 -3 -3 -3 -3 -3 -2 -2 -2 -2 -2 -2 -2 -2 -2 -3 -3 -3 -3 -3 -3 -3 -3 -3 -3 -3 -3 -3 -3 -2 -2 -2 -2 -2 -2 -2 -1 -1 -1 -1 -1 -1 -1 -1
-2 -2 -2 -2 -2 -2 -2 -2 -2 -2 -2 -2 -2 -2 -3 -3 -3 -3 -3 -4 -4 -4 -4 -4 -5 -5 -5 -5 -5 -5 -4 -4 -4 -4 -4 -4 -4 -4 -4 -4 -4 -4 -4 -4 -4 -4 -4 -3 -3 -2 -2 -2 -2 -2 -2 -2 -2 -3 -3 -3 -3 -3 -3 -3 -3 -3 -3 -3 -3 -3 -3 -3 -2 -2 -2 -2 -2 -2 -2 -2 -1 -1 -1 -1 -1 -1
-3 -3 -3 -3 -3 -3 -3 -3 -3 -3 -3 -3 -2 -3 -3 -3 -3 -3 -3 -4 -4 -4 -5 -5 -5 -5 -5 -5 -5 -5 -5 -5 -4 -4 -4 -4 -4 -4 -4 -4 -4 -4 -4 -4 -4 -4 -4 -3 -3 -2 -2 -2 -2 -2 -2 -3 -3 -3 -3 -3 -3 -3 -3 -3 -3 -3 -3 -3 -3 -3 -3 -3 -3 -2 -2 -2 -2 -2 -2 -2 -2 -2 -2 -1 -1 -1
-3 -3 -3 -3 -3 -3 -3 -3 -3 -3 -3 -3 -3 -3 -3 -3 -3 -4 -4 -4 -4 -4 -4 -5 -5 -5 -5 -5 -5 -5 -5 -5 -5 -4 -4 -5 -5 -4 -4 -4 -4 -4 -4 -4 -4 -4 -4 -3 -3 -3 -2 -2 -2 -2 -3 -3 -3 -3 -3 -3 -3 -3 -3 -3 -3 -3 -3 -3 -3 -3 -3 -3 -3 -3 -3 -2 -2 -2 -2 -2 -2 -2 -2 -2 -2 -2
-3 -3 -3 -3 -3 -4 -4 -4 -4 -4 -4 -4 -4 -3 -3 -4 -4 -4 -4 -4 -4 -4 -5 -5 -5 -5 -5 -5 -5 -5 -5 -5 -5 -4 -4 -5 -5 -4 -4 -4 -4 -4 -4 -5 -4 -4 -4 -3 -3 -3 -3 -3 -3 -3 -3 -3 -3 -3 -3 -3 -3 -3 -3 -3 -3 -3 -3 -3 -3 -3 -3 -3 -3 -3 -3 -3 -3 -3 -3 -2 -2 -2 -2 -2 -2 -2
-3 -3 -3 -3 -4 -4 -4 -4 -4 -4 -4 -4 -4 -4 -4 -4 -4 -4 -4 -4 -4 -4 -5 -5 -5 -5 -5 -5 -6 -6 -5 -5 -4 -5 -5 -5 -5 -4 -4 -5 -5 -5 -5 -5 -5 -4 -4 -3 -3 -3 -3 -3 -3 -3 -3 -3 -3 -3 -3 -3 -3 -3 -3 -4 -4 -3 -3 -3 -3 -3 -3 -3 -3 -3 -3 -3 -3 -3 -3 -3 -3 -3 -3 -3 -3 -3
-4 -4 -4 -4 -4 -4 -4 -4 -4 -4 -4 -4 -4 -4 -4 -4 -4 -4 -4 -4 -4 -5 -5 -5 -5 -5 -5 -5 -6 -6 -6 -5 -4 -5 -5 -5 -5 -5 -5 -5 -5 -5 -5 -5 -5 -4 -4 -4 -3 -3 -4 -4 -4 -4 -4 -4 -4 -4 -4 -4 -3 -3 -4 -4 -4 -4 -4 -3 -3 -3 -3 -3 -3 -3 -3 -3 -3 -3 -3 -3 -3 -3 -3 -3 -3 -3
-4 -5 -5 -5 -5 -5 -4 -4 -4 -4 -4 -4 -4 -4 -4 -4 -4 -4 -4 -4 -5 -5 -5 -5 -5 -5 -6 -6 -6 -6 -6 -5 -5 -5 -5 -5 -5 -5 -5 -5 -5 -5 -5 -5 -5 -5 -5 -4 -4 -4 -4 -5 -5 -5 -5 -4 -4 -4 -4 -4 -4 -4 -4 -4 -4 -4 -4 -4 -4 -4 -4 -4 -4 -4 -4 -4 -4 -4 -4 -3 -3 -3 -3 -3 -3 -3
-5 -5 -5 -5 -5 -5 -5 -5 -5 -4 -4 -4 -4 -4 -4 -4 -4 -4 -5 -5 -5 -5 -5 -5 -5 -6 -6 -6 -6 -6 -6 -6 -6 -6 -6 -6 -6 -6 -6 -6 -6 -6 -6 -6 -6 -6 -5 -5 -5 -5 -5 -5 -5 -5 -5 -5 -5 -4 -4 -4 -4 -4 -4 -4 -4 -4 -4 -4 -4 -4 -4 -4 -4 -4 -4 -4 -4 -4 -4 -4 -3 -3 -3 -3 -3 -3
-5 -5 -5 -5 -5 -5 -5 -5 -5 -5 -4 -4 -4 -4 -4 -4 -4 -4 -5 -5 -5 -5 -5 -5 -6 -6 -6 -6 -6 -6 -6 -6 -6 -6 -6 -6 -6 -6 -6 -6 -6 -6 -6 -6 -6 -6 -6 -5 -5 -5 -5 -5 -5 -5 -5 -5 -5 -4 -4 -4 -4 -4 -4 -4 -4 -4 -4 -4 -4 -4 -4 -4 -4 -4 -4 -4 -4 -4 -4 -4 -4 -3 -3 -3 -3 -3
-5 -5 -5 -5 -5 -5 -5 -5 -5 -5 -4 -4 -4 -4 -4 -4 -4 -4 -5 -5 -5 -5 -5 -6 -6 -6 -6 -6 -6 -6 -6 -6 -6 -6 -6 -6 -6 -6 -6 -6 -6 -6 -6 -6 -6 -6 -6 -6 -5 -5 -5 -5 -5 -5 -5 -5 -5 -4 -4 -4 -4 -4 -4 -4 -4 -4 -4 -4 -4 -4 -4 -4 -4 -4 -4 -4 -4 -4 -4 -4 -4 -3 -3 -3 -3 -3
-6 -6 -6 -5 -5 -5 -5 -5 -5 -5 -5 -4 -4 -4 -4 -4 -5 -5 -5 -5 -5 -5 -5 -6 -6 -6 -6 -6 -6 -6 -6 -6 -6 -6 -6 -7 -7 -7 -7 -7 -7 -7 -6 -6 -6 -6 -6 -6 -6 -5 -5 -5 -5 -5 -5 -4 -4 -4 -4 -4 -4 -4 -4 -4 -4 -4 -4 -4 -4 -4 -4 -4 -4 -4 -4 -4 -4 -4 -4 -4 -4 -4 -4 -3 -3 -3
-6 -6 -6 -5 -5 -5 -5 -5 -5 -5 -5 -5 -5 -5 -5 -5 -5 -5 -5 -5 -5 -5 -5 -5 -6 -6 -6 -6 -6 -6 -6 -7 -7 -7 -7 -7 -7 -7 -7 -7 -7 -7 -7 -6 -6 -6 -6 -6 -6 -6 -5 -5 -5 -5 -4 -4 -4 -5 -5 -5 -5 -5 -5 -4 -4 -4 -4 -4 -4 -4 -4 -4 -4 -4 -4 -4 -4 -4 -4 -4 -4 -4 -4 -4 -4 -3
-6 -6 -6 -6 -5 -5 -5 -5 -5 -5 -5 -5 -5 -5 -5 -5 -5 -5 -5 -5 -5 -5 -5 -5 -5 -6 -6 -6 -6 -6 -7 -7 -7 -7 -7 -7 -7 -7 -7 -7 -7 -7 -6 -6 -6 -6 -6 -6 -6 -6 -5 -5 -5 -5 -5 -5 -5 -5 -5 -5 -5 -5 -4 -4 -4 -4 -4 -4 -4 -4 -4 -4 -4 -4 -4 -4 -4 -4 -4 -4 -4 -4 -4 -4 -4 -4
-6 -6 -6 -6 -6 -6 -5 -5 -5 -5 -5 -5 -5 -5 -5 -5 -6 -6 -6 -6 -6 -5 -6 -6 -6 -6 -6 -6 -7 -7 -7 -7 -7 -7 -7 -7 -7 -7 -7 -7 -7 -6 -6 -6 -6 -6 -6 -6 -6 -6 -5 -5 -5 -5 -5 -5 -5 -5 -5 -5 -4 -4 -4 -4 -4 -4 -4 -4 -4 -4 -4 -4 -4 -4 -4 -4 -4 -4 -4 -4 -4 -4 -4 -4 -4 -4
-6 -6 -6 -6 -6 -6 -6 -6 -6 -6 -6 -6 -6 -6 -6 -6 -6 -6 -6 -6 -6 -6 -6 -7 -7 -7 -7 -7 -7 -7 -7 -7 -7 -7 -7 -6 -6 -6 -6 -6 -6 -6 -6 -6 -6 -6 -6 -6 -6 -6 -6 -5 -5 -5 -5 -5 -5 -5 -5 -4 -4 -4 -4 -4 -4 -4 -4 -4 -4 -4 -4 -4 -4 -4 -4 -4 -4 -4 -4 -4 -4 -4 -4 -4 -4 -4
-6 -6 -6 -6 -6 -6 -6 -6 -6 -6 -6 -6 -6 -6 -6 -6 -6 -7 -7 -7 -7 -7 -7 -7 -7 -7 -7 -7 -7 -6 -6 -7 -7 -6 -6 -6 -6 -6 -6 -6 -6 -6 -6 -6 -6 -6 -6 -6 -6 -6 -6 -6 -5 -5 -5 -5 -5 -5 -4 -4 -4 -4 -4 -4 -4 -4 -4 -4 -4 -4 -4 -4 -4 -4 -4 -4 -4 -4 -4 -4 -4 -4 -4 -4 -4 -4
-6 -6 -6 -6 -6 -6 -6 -6 -6 -6 -7 -7 -7 -7 -7 -7 -7 -7 -7 -7 -7 -7 -7 -7 -7 -7 -6 -7 -7 -7 -6 -6 -6 -6 -6 -6 -6 -6 -6 -6 -6 -6 -6 -6 -6 -6 -6 -6 -6 -6 -6 -5 -5 -5 -5 -5 -5 -5 -5 -5 -4 -4 -4 -4 -4 -4 -4 -4 -4 -4 -4 -4 -4 -4 -4 -4 -4 -4 -4 -4 -4 -4 -4 -4 -4 -4
-7 -6 -7 -7 -7 -7 -7 -7 -7 -7 -7 -7 -7 -7 -7 -7 -7 -7 -7 -7 -7 -7 -7 -7 -7 -7 -6 -6 -6 -6 -6 -6 -6 -6 -6 -6 -6 -6 -6 -6 -6 -6 -6 -6 -6 -6 -6 -6 -6 -6 -6 -5 -5 -5 -5 -5 -5 -5 -5 -4 -4 -4 -4 -4 -4 -4 -4 -4 -4 -4 -4 -4 -4 -4 -4 -4 -4 -4 -4 -4 -4 -4 -4 -4 -4 -4
-7 -7 -7 -7 -7 -7 -7 -7 -7 -7 -7 -7 -7 -7 -7 -7 -7 -7 -7 -7 -7 -7 -7 -7 -7 -7 -6 -6 -6 -6 -6 -6 -6 -6 -6 -6 -6 -6 -6 -6 -6 -6 -6 -6 -6 -6 -6 -6 -6 -6 -5 -5 -5 -5 -5 -5 -5 -5 -5 -4 -4 -4 -4 -4 -4 -4 -4 -4 -4 -4 -4 -4 -4 -4 -4 -4 -4 -4 -4 -4 -4 -4 -4 -4 -4 -4
-7 -7 -7 -7 -7 -7 -7 -8 -8 -8 -8 -8 -8 -7 -7 -7 -7 -7 -7 -7 -7 -7 -7 -7 -7 -6 -6 -6 -6 -6 -6 -6 -6 -6 -6 -6 -6 -6 -6 -6 -6 -6 -6 -6 -6 -6 -6 -6 -6 -6 -6 -5 -5 -5 -5 -5 -5 -5 -5 -5 -4 -4 -4 -4 -4 -4 -4 -4 -4 -4 -4 -4 -4 -4 -4 -4 -4 -4 -4 -4 -4 -4 -4 -4 -4 -4
-7 -7 -7 -7 -8 -8 -8 -8 -8 -8 -8 -8 -8 -8 -7 -7 -7 -7 -7 -7 -7 -7 -7 -7 -7 -6 -6 -6 -6 -6 -6 -6 -6 -6 -6 -6 -6 -6 -6 -6 -6 -6 -5 -6 -6 -6 -6 -6 -6 -6 -5 -5 -5 -5 -5 -5 -5 -5 -5 -5 -5 -4 -4 -4 -4 -4 -4 -4 -4 -4 -4 -4 -4 -4 -4 -4 -4 -4 -4 -4 -4 -4 -4 -4 -4 -4
-7 -7 -8 -8 -8 -8 -8 -9 -8 -8 -8 -8 -8 -8 -7 -7 -7 -7 -7 -7 -7 -7 -7 -6 -6 -6 -6 -6 -6 -6 -6 -6 -6 -6 -6 -6 -6 -6 -6 -6 -5 -5 -5 -5 -5 -5 -6 -6 -6 -6 -6 -6 -5 -5 -5 -5 -5 -5 -5 -5 -5 -5 -4 -4 -4 -4 -4 -4 -4 -4 -4 -4 -4 -4 -4 -4 -4 -4 -4 -4 -4 -3 -3 -3 -3 -3
-8 -8 -8 -8 -8 -8 -8 -9 -9 -8 -8 -8 -8 -8 -7 -7 -7 -7 -7 -7 -7 -7 -7 -7 -7 -6 -6 -6 -6 -6 -6 -6 -6 -6 -6 -6 -6 -6 -5 -5 -5 -5 -5 -5 -5 -5 -5 -5 -5 -6 -6 -6 -5 -5 -5 -5 -5 -5 -5 -5 -5 -5 -4 -4 -4 -4 -4 -4 -4 -4 -4 -4 -4 -4 -4 -4 -4 -4 -4 -3 -3 -3 -3 -3 -3 -3
-8 -8 -8 -8 -8 -8 -8 -9 -9 -8 -8 -8 -8 -8 -7 -7 -7 -7 -7 -7 -7 -7 -7 -7 -7 -7 -7 -6 -6 -6 -6 -6 -6 -6 -6 -6 -6 -6 -5 -5 -5 -5 -5 -5 -5 -5 -5 -5 -5 -5 -5 -5 -5 -5 -5 -5 -5 -5 -5 -5 -5 -5 -4 -4 -4 -4 -4 -4 -4 -4 -4 -4 -4 -4 -4 -4 -4 -3 -3 -3 -3 -3 -3 -3 -3 -3
-7 -7 -7 -8 -8 -8 -8 -9 -8 -8 -8 -8 -8 -8 -7 -7 -7 -7 -7 -7 -7 -7 -7 -7 -7 -7 -7 -7 -6 -6 -6 -6 -6 -6 -6 -6 -6 -6 -6 -5 -5 -5 -5 -5 -5 -5 -5 -5 -5 -5 -5 -5 -5 -5 -5 -5 -5 -5 -5 -5 -4 -4 -4 -4 -4 -4 -4 -4 -4 -4 -4 -4 -4 -4 -4 -4 -4 -3 -3 -3 -3 -3 -3 -3 -3 -3
-8 -8 -8 -8 -8 -8 -9 -8 -8 -8 -8 -8 -8 -8 -7 -7 -7 -7 -7 -7 -7 -7 -7 -7 -7 -7 -7 -6 -6 -6 -6 -6 -6 -6 -6 -6 -6 -6 -6 -5 -5 -5 -5 -5 -5 -5 -5 -5 -5 -4 -4 -4 -4 -4 -4 -4 -4 -4 -4 -4 -4 -4 -4 -4 -4 -4 -4 -4 -4 -4 -4 -4 -4 -4 -4 -4 -4 -3 -3 -3 -3 -3 -3 -3 -3 -3
Height
805 805 807 807 808 808 809 809 810 811 813 814 815 815 816 817 818 819 820 820 821 821 822 823 823 824 823 823 822 821 821 821 821 821 821 820 820 820 819 819 819 818 818 818 817 817 816 816 815 815 815 815 815 815 815 815 814 814 814 814 814 813 813 813 813 813 812 812 812 812 812 812 811 811 811 811 811 811 811 811 810 810 810 810 810 810
805 806 807 807 808 808 808 809 810 810 811 812 813 814 815 816 817 818 819 819 820 821 822 823 823 823 822 822 821 821 820 820 820 820 820 820 819 819 818 818 818 817 817 817 816 815 815 814 814 813 813 813 813 813 813 813 813 813 813 813 812 812 812 812 811 811 811 811 811 811 810 810 810 810 810 810 810 810 810 809 809 809 809 808 808 808
804 806 806 807 807 808 808 809 809 810 810 811 812 814 815 816 816 817 818 819 820 820 821 822 822 822 821 821 820 820 820 820 820 819 819 819 818 818 817 817 816 816 815 815 814 814 813 812 812 812 812 812 812 812 812 812 812 812 811 811 811 811 810 810 810 810 810 810 810 810 809 809 809 809 809 808 808 808 808 808 807 807 807 807 806 806
804 805 806 806 807 807 807 808 808 809 810 811 812 813 815 815 816 817 817 818 820 820 821 821 821 821 820 820 820 820 819 819 819 819 818 818 817 817 816 816 815 815 814 813 812 812 811 811 811 811 811 811 811 811 811 811 810 810 810 810 810 810 809 809 809 809 809 808 808 808 808 808 807 807 807 807 807 806 806 806 806 806 805 805 805 805
804 805 805 806 806 806 806 807 808 809 810 811 812 814 815 815 816 816 817 818 819 820 820 820 820 820 820 819 819 819 819 818 818 817 817 816 816 815 815 814 813 812 812 811 811 810 810 810 810 810 810 810 810 810 810 810 810 809 809 809 809 808 808 808 807 807 807 807 807 806 806 806 806 806 805 805 805 805 805 805 804 804 804 804 803 803
805 805 805 805 805 805 806 807 808 809 810 811 813 814 814 815 816 816 817 818 818 819 819 819 819 819 819 818 818 818 817 817 817 816 815 815 814 814 813 812 811 810 810 810 810 809 809 809 809 809 809 809 809 809 809 809 808 808 808 807 807 807 807 806 806 806 806 805 805 805 805 805 804 804 804 804 803 803 803 803 803 802 802 802 802 802
805 805 805 805 805 805 806 807 808 809 810 811 812 813 814 815 815 816 816 817 818 818 818 818 818 818 817 817 817 817 816 815 815 815 814 813 812 811 811 810 809 809 809 809 809 808 808 808 808 808 808 808 808 808 808 807 807 807 806 806 806 805 805 805 805 805 804 804 804 804 803 803 803 803 802 802 802 802 801 801 801 801 800 800 800 800
804 804 804 805 805 806 806 807 808 809 810 811 812 813 813 814 815 815 816 816 817 817 817 817 817 817 816 816 815 815 815 814 813 813 812 811 810 810 809 808 808 808 808 808 808 808 807 807 807 807 807 807 807 806 806 806 806 805 805 805 804 804 804 804 803 803 803 803 802 802 802 802 801 801 801 800 800 800 800 800 799 799 799 799 799 798
803 804 804 805 805 806 807 807 808 809 810 811 811 812 813 813 814 814 815 815 815 816 816 815 815 815 815 815 814 814 813 813 812 811 810 810 809 808 807 807 807 807 806 807 807 807 806 806 806 806 806 806 805 805 805 805 804 804 804 803 803 803 802 802 802 802 801 801 801 801 800 800 800 800 800 799 799 799 798 798 798 797 797 797 797 796
803 804 804 805 805 806 807 807 808 809 810 810 811 812 812 812 813 814 814 814 815 815 815 814 814 814 813 813 813 812 812 811 811 810 809 808 807 807 806 806 806 805 805 805 805 805 805 805 805 805 805 805 804 804 804 803 803 802 802 802 801 801 801 801 800 800 800 800 800 800 799 799 799 798 798 798 797 797 796 796 796 795 795 795 795 795
804 804 805 805 806 806 807 807 808 809 810 810 810 811 811 811 812 812 813 813 813 813 813 813 813 812 812 812 811 811 811 810 810 809 808 807 806 806 805 805 805 805 805 805 804 804 804 804 804 804 803 803 803 802 802 801 801 801 800 800 800 800 800 800 799 799 799 799 798 798 798 797 797 797 796 796 796 795 795 795 794 794 794 793 793 793
804 804 805 805 806 806 807 807 808 809 809 810 810 810 810 810 811 811 811 812 812 812 812 812 812 811 811 811 810 810 809 809 808 807 806 805 805 805 804 804 804 804 804 803 803 803 803 803 802 802 802 801 801 801 800 800 800 799 799 799 799 799 798 798 798 798 798 797 797 797 796 796 796 795 795 795 794 794 793 793 793 792 792 791 791 791
804 805 805 805 806 806 807 807 808 808 808 809 809 809 809 810 810 810 810 811 811 811 811 811 811 810 810 810 810 809 808 807 806 805 805 804 804 804 803 803 802 802 802 802 802 802 802 801 801 801 800 800 800 800 799 799 798 798 798 798 797 797 797 797 797 796 796 796 795 795 795 795 794 794 793 793 792 792 792 791 791 790 790 790 790 789
804 805 805 805 806 806 806 807 807 807 807 808 808 808 808 809 809 810 810 810 810 810 810 810 810 810 809 809 809 808 807 806 805 804 804 804 803 803 802 802 801 801 801 800 800 800 800 800 800 799 799 799 799 798 798 797 797 797 797 796 796 796 796 796 795 795 795 795 794 794 793 793 793 792 792 791 791 790 790 790 789 789 788 788 788 787
804 805 805 805 806 806 806 806 806 806 807 807 807 808 808 808 809 809 810 810 810 809 809 809 809 808 808 808 807 807 806 805 804 804 803 803 802 802 802 801 800 800 800 799 799 798 799 798 798 798 798 797 797 797 796 796 796 795 796 795 795 795 795 795 794 794 793 793 793 792 792 791 791 790 790 790 789 789 788 788 787 787 786 786 785 785
804 805 805 805 805 806 806 806 806 806 806 806 807 807 807 808 808 809 809 809 809 808 808 808 807 807 807 807 807 806 805 805 804 803 802 801 801 801 801 800 799 798 798 797 797 797 797 797 797 796 796 796 795 795 795 795 795 795 795 794 794 794 793 793 793 792 792 791 791 790 790 790 789 789 788 788 787 787 786 786 785 785 785 784 784 783
804 805 805 805 805 805 805 805 805 805 806 806 806 807 807 807 808 808 808 808 808 808 807 807 807 806 806 805 805 805 805 805 804 803 802 800 800 800 800 799 798 797 796 796 795 795 795 795 795 795 795 795 794 794 794 794 794 794 793 793 793 792 792 791 791 790 790 790 789 789 788 788 787 787 786 786 785 785 784 784 783 783 782 782 781 781
804 804 805 805 805 805 805 805 805 805 805 806 806 806 806 807 807 807 807 807 807 807 807 807 807 806 806 805 805 805 805 804 803 802 801 799 799 798 799 798 797 795 795 794 794 794 794 794 794 794 793 793 793 793 793 793 792 792 792 791 791 790 790 790 789 789 788 788 787 787 786 785 785 785 784 784 783 783 782 782 781 781 780 780 780 779
804 804 804 804 804 804 804 805 805 805 805 805 805 806 806 806 806 806 806 806 806 806 806 806 806 806 805 805 805 805 804 804 803 801 800 798 797 797 797 796 795 794 793 793 793 793 793 793 792 792 792 792 792 791 791 791 791 790 790 790 789 789 788 788 787 787 786 785 785 785 784 784 783 783 782 781 781 780 780 780 779 779 778 778 777 777
803 804 804 804 804 804 804 804 804 805 805 805 805 805 805 805 805 805 805 805 805 806 806 806 805 805 805 804 804 804 804 803 802 801 799 797 795 795 795 795 795 793 792 792 792 792 792 791 791 791 791 790 790 790 790 789 789 789 788 788 787 787 786 786 785 785 784 784 783 783 782 782 781 780 780 780 779 778 778 777 777 776 776 775 775 774
803 803 803 803 804 804 804 804 804 804 804 805 805 805 805 805 805 805 805 805 805 805 805 805 805 804 804 804 803 803 803 802 802 801 799 796 795 794 794 795 794 792 791 790 790 790 790 790 790 789 789 789 788 788 788 787 787 787 786 786 785 785 785 784 783 783 782 782 781 781 780 780 779 779 778 777 777 776 776 775 775 774 774 773 773 772
803 803 803 803 803 803 803 804 804 804 804 804 804 804 804 805 805 805 805 805 805 804 804 804 804 803 803 803 802 802 802 802 801 800 799 796 794 793 794 794 793 792 791 790 789 789 789 789 788 788 787 787 787 786 786 785 785 785 785 784 784 783 782 782 781 781 780 780 779 779 778 778 777 776 776 775 775 774 774 773 772 772 771 771 770 770
803 803 803 803 803 803 803 803 803 803 803 804 804 804 804 804 804 804 804 804 804 803 803 803 802 802 802 801 801 800 801 801 800 800 799 797 794 792 793 793 793 792 790 789 789 788 787 787 786 786 785 785 785 784 784 784 783 783 782 782 781 781 780 780 780 779 779 778 777 777 776 775 775 774 774 773 773 772 771 771 770 770 769 769 768 767
802 802 802 802 802 803 803 803 803 803 803 803 803 803 803 803 803 803 803 803 803 802 802 802 801 800 800 800 800 799 799 799 799 799 798 796 794 792 792 792 792 791 790 789 788 787 786 785 784 784 783 783 783 782 782 782 781 781 780 780 780 779 779 778 778 777 776 776 775 775 774 773 773 772 771 771 770 770 769 769 768 767 767 766 765 765
802 802 802 802 802 802 802 802 802 802 802 802 802 802 802 802 802 802 802 802 802 801 801 800 800 799 799 799 798 798 798 798 798 798 797 795 793 792 792 792 791 790 789 788 787 787 785 783 782 781 781 781 781 780 780 780 779 779 778 778 778 777 777 776 775 775 774 774 773 772 772 771 771 770 770 769 768 768 767 766 766 765 765 764 763 762
801 801 801 802 802 802 802 802 802 802 802 802 802 802 801 801 801 801 801 801 801 800 800 800 799 799 798 798 797 797 797 797 797 797 796 795 793 791 791 791 791 790 788 787 786 785 784 782 780 780 779 779 779 779 778 778 777 777 776 776 775 775 775 774 773 773 772 771 771 770 770 769 769 768 768 767 766 766 765 765 764 763 762 762 761 760
801 801 801 801 801 801 801 801 801 801 801 801 801 801 801 800 800 800 800 800 800 800 800 800 799 798 797 797 796 796 796 796 796 796 795 795 793 791 790 790 790 789 787 786 785 784 783 781 780 778 778 777 777 777 776 776 775 775 775 774 773 773 772 772 771 770 770 769 769 768 768 767 767 766 765 765 764 764 763 762 762 761 760 759 758 757
800 800 800 800 800 800 800 800 800 800 800 800 800 800 800 800 800 799 799 799 799 799 799 799 798 798 797 796 795 795 795 795 795 795 794 794 792 791 790 790 789 788 787 785 783 782 782 780 779 777 776 776 775 775 775 774 774 773 772 772 771 770 770 769 769 768 768 767 767 766 766 765 765 764 764 763 762 762 761 760 760 759 758 757 756 755
800 800 800 799 799 799 799 799 799 799 799 799 799 799 799 799 799 798 798 798 798 798 798 798 798 797 796 795 795 794 794 793 793 793 793 793 791 790 790 789 789 788 787 785 782 780 779 779 778 777 776 775 774 774 773 772 772 771 770 770 769 768 768 767 767 766 765 765 765 764 764 763 763 762 761 761 760 760 759 758 757 757 756 755 754 753
799 799 799 799 798 798 798 798 798 798 798 798 798 798 798 798 798 797 797 797 797 797 797 797 796 796 796 795 795 794 793 792 792 792 792 792 791 790 789 788 788 787 787 785 782 779 777 776 776 776 775 775 773 772 771 770 770 769 768 767 766 766 765 765 765 764 764 763 763 762 761 761 760 760 759 759 758 757 756 756 755 755 754 752 751 751
798 798 797 797 797 797 797 797 797 797 797 797 797 797 797 797 796 796 796 796 796 796 796 796 796 796 796 796 795 794 792 792 792 792 792 791 790 789 788 788 787 787 787 786 785 782 778 775 774 775 775 774 772 771 770 769 768 767 766 765 764 764 764 763 763 762 761 761 760 760 759 759 758 758 757 756 756 755 754 754 753 753 752 750 750 749
797 796 796 796 796 796 796 796 796 796 796 795 795 795 795 795 795 795 795 795 795 795 795 795 795 795 795 795 795 794 792 791 791 791 791 791 790 789 788 787 787 786 786 786 786 785 781 776 774 773 773 773 772 770 769 768 767 766 765 765 763 762 762 762 761 760 760 759 758 757 757 756 756 755 755 754 753 753 752 752 751 751 750 749 748 747
796 795 795 795 795 795 795 795 795 795 795 795 795 795 795 795 795 795 795 795 795 795 794 794 794 794 794 794 793 792 791 790 791 791 791 790 789 788 787 787 786 785 785 785 785 785 783 779 775 773 772 771 770 769 768 767 766 765 765 764 762 760 760 760 759 759 758 757 756 755 755 754 753 753 752 751 751 750 750 750 749 749 748 747 746 745
795 795 795 795 795 795 795 795 794 794 794 794 794 794 794 794 794 794 794 794 794 794 793 793 793 793 793 792 791 790 789 789 790 790 790 790 789 788 787 786 786 785 785 784 783 782 781 779 777 775 771 769 768 768 767 766 765 764 763 763 761 760 759 758 758 757 756 755 754 753 752 751 751 750 750 749 749 748 748 747 747 747 747 746 745 744
794 794 794 794 794 794 794 794 794 794 793 793 793 793 793 793 793 793 793 793 793 793 792 792 792 792 792 791 790 789 788 788 789 789 789 789 788 787 786 785 785 785 784 783 782 781 780 778 776 775 772 769 766 765 765 765 764 763 762 761 760 759 757 757 756 755 754 753 752 751 750 749 748 748 747 747 746 746 746 745 745 745 745 744 743 742
793 793 793 793 793 793 793 793 793 793 793 793 793 792 792 792 792 792 792 792 792 792 791 791 791 791 790 790 789 788 787 787 787 788 788 788 787 787 785 785 784 784 784 782 781 780 779 777 775 774 773 770 766 764 763 763 762 762 760 760 758 757 756 755 755 754 752 751 750 749 748 747 747 746 745 745 745 744 744 743 743 742 742 741 741 740
793 793 793 793 793 793 792 792 792 792 792 792 792 792 791 791 791 791 791 791 790 790 790 790 790 789 789 789 788 787 786 785 786 786 786 786 786 786 785 783 783 783 783 781 780 779 778 776 774 772 771 769 767 764 761 760 760 760 759 757 756 755 754 753 753 752 751 750 748 747 746 746 745 744 743 743 742 742 741 741 740 740 739 738 738 737
792 792 792 792 792 792 792 792 792 791 791 791 791 791 790 790 790 790 790 790 789 789 789 788 788 788 787 787 786 786 785 785 785 785 785 785 785 784 783 782 781 781 781 780 780 779 777 776 774 771 769 767 765 764 762 760 759 758 756 755 755 754 752 751 751 750 750 748 747 746 745 745 744 743 742 741 740 740 739 738 737 737 736 735 735 734
792 792 792 792 792 791 791 791 791 791 790 790 790 790 790 790 789 789 789 788 788 787 787 787 786 786 785 785 785 784 784 783 783 783 783 783 783 782 782 781 780 779 779 779 778 777 776 775 773 771 769 766 764 762 761 760 759 757 755 753 752 751 750 750 750 749 748 747 745 744 743 742 742 741 740 739 738 737 736 735 735 734 734 733 732 731
791 791 791 791 791 791 791 790 790 790 790 790 789 789 789 788 788 788 787 787 786 786 785 785 785 784 784 783 783 782 782 782 781 781 781 781 781 780 780 780 779 778 777 777 776 776 775 774 772 770 768 766 763 761 759 758 757 756 755 753 750 748 747 748 748 747 746 745 744 743 741 740 740 739 738 737 736 736 735 734 733 732 732 731 730 729
791 791 790 790 790 790 790 790 790 790 789 789 789 788 788 787 787 787 786 786 785 785 785 784 784 783 782 782 781 781 781 780 780 780 780 779 779 779 778 778 777 776 776 775 774 774 773 772 770 768 767 765 763 760 758 757 756 755 755 752 750 747 745 745 745 745 744 743 742 741 740 739 738 737 736 735 735 734 733 732 731 730 729 729 728 727
790 790 790 790 790 790 790 790 789 789 789 788 788 788 787 787 786 786 785 785 785 784 784 783 782 782 781 780 780 780 779 779 779 778 778 778 777 777 777 776 775 775 774 773 772 771 771 770 768 767 765 764 762 760 756 755 754 754 753 751 749 746 744 743 743 743 743 741 740 740 739 738 736 735 734 733 732 731 730 730 729 728 727 726 725 724
790 790 790 790 789 789 789 789 789 788 788 788 787 787 787 786 786 785 785 784 784 783 783 782 782 781 780 779 778 778 778 777 777 777 776 776 776 775 775 774 774 773 773 772 771 770 768 768 766 765 763 762 761 758 755 753 751 750 750 749 748 746 743 740 740 740 741 740 739 738 737 736 735 733 732 731 730 729 728 727 726 725 724 723 722 721
790 789 789 789 789 789 788 788 788 787 787 787 786 786 786 785 785 785 784 783 783 782 782 781 780 780 779 778 777 776 776 776 775 775 775 775 774 774 773 773 772 772 771 771 770 768 766 765 764 763 762 761 759 757 754 751 750 748 747 747 747 746 743 740 738 738 738 737 736 735 735 734 733 731 730 728 727 726 725 724 723 722 721 720 719 718
789 789 789 789 788 788 788 788 787 787 786 786 785 785 785 784 784 784 783 782 782 781 781 780 780 779 778 777 776 775 775 774 774 774 773 773 773 772 772 771 771 770 770 769 768 767 765 763 761 760 760 759 757 755 752 750 748 746 745 745 744 743 741 739 738 737 736 735 734 733 733 732 731 730 727 726 724 723 722 721 720 719 717 717 716 715
789 788 788 788 788 787 787 787 786 786 785 785 784 784 784 783 783 783 782 782 781 780 780 780 779 779 777 776 775 775 774 773 772 772 771 771 771 770 770 770 769 768 767 766 765 765 763 762 760 759 757 756 754 752 750 749 747 745 743 742 741 740 739 737 736 736 735 734 732 731 730 730 729 728 725 723 722 720 719 719 717 716 715 714 713 712
788 788 787 787 787 786 786 785 785 785 784 784 783 783 783 782 782 781 781 781 780 780 779 779 778 778 777 776 775 774 773 772 771 770 770 769 769 769 768 767 767 766 765 764 763 762 761 759 758 757 756 754 751 749 746 746 745 744 741 740 739 738 737 735 734 734 733 732 730 729 728 728 727 725 723 721 719 718 716 715 715 713 712 711 710 710
787 787 787 786 786 785 785 785 784 784 783 783 782 782 782 781 781 781 780 780 780 779 779 778 777 777 776 775 774 773 772 771 770 769 768 767 767 766 766 765 765 764 763 762 761 760 758 757 756 755 754 752 750 746 744 743 743 742 740 739 738 736 735 733 732 731 731 730 728 727 726 726 725 723 720 719 717 715 714 712 711 710 710 709 708 707
786 786 786 786 785 785 784 784 783 783 782 782 781 781 780 780 780 780 780 779 779 778 778 777 776 775 775 773 773 772 771 770 769 768 767 766 765 765 764 763 763 762 761 760 758 757 755 754 753 752 751 750 748 745 742 740 740 739 739 737 736 735 733 731 730 729 729 727 726 725 725 724 722 721 719 717 714 712 711 710 708 707 707 706 705 705
786 785 785 785 785 784 784 783 783 782 782 781 780 780 780 779 779 779 779 778 778 777 776 776 775 774 773 772 771 770 770 769 767 766 765 765 764 763 762 761 761 760 759 757 756 755 753 751 749 748 748 747 746 744 741 739 737 737 736 735 734 733 731 729 728 727 726 725 724 723 722 721 720 719 717 715 713 710 708 707 705 704 704 703 703 702
785 785 784 784 784 783 783 782 782 781 781 780 780 779 779 778 778 778 777 777 776 776 775 775 774 773 772 770 770 769 768 767 766 765 763 763 762 762 761 760 760 759 757 755 754 752 751 749 746 744 743 743 744 743 740 738 736 735 734 732 731 731 730 728 726 725 724 723 722 721 720 719 718 716 715 714 711 709 706 705 703 701 700 700 700 699
Wind_Speed
16 17 18 18 18 18 18 18 17 16 15 13 11 10 10 11 13 14 15 14 14 13 13 13 13 13 13 12 12 11 10 10 10 10 11 11 11 11 12 12 12 13 13 13 13 14 14 14 13 13 13 13 13 13 13 13 13 13 13 13 14 14 14 14 15 15 15 15 15 15 15 15 16 16 16 16 17 17 17 18 18 18 18 18 19 19
13 14 14 14 15 15 15 14 13 12 12 11 10 10 10 12 13 14 13 12 12 12 13 14 14 14 14 13 12 11 11 10 10 11 11 11 11 12 12 12 12 13 13 13 13 13 13 13 13 13 13 12 12 13 13 13 13 13 14 14 14 14 14 15 15 15 15 15 15 16 16 16 16 17 17 17 18 18 18 18 18 19 19 19 19 19
13 13 13 13 13 13 13 12 11 10 10 10 9 10 10 12 12 12 12 11 12 13 14 14 14 14 14 13 12 12 11 11 11 11 11 11 11 11 12 12 13 13 13 13 13 13 13 12 12 12 12 12 13 13 13 13 13 14 14 14 14 15 15 15 15 16 16 16 16 16 17 17 17 17 18 18 18 18 19 19 19 19 19 19 20 20
14 14 15 14 13 13 12 11 10 9 9 9 9 9 10 11 12 11 11 12 13 14 14 14 14 14 14 13 13 12 12 12 12 11 11 11 11 11 12 13 13 13 13 13 13 12 12 12 12 12 12 13 13 13 13 14 14 14 15 15 15 15 16 16 16 16 16 16 17 17 17 17 18 18 18 18 19 19 19 19 19 19 19 20 20 20
14 14 15 15 15 13 12 10 10 9 9 9 9 10 10 11 11 11 11 12 13 14 14 14 14 14 13 13 13 13 12 11 11 10 10 10 11 12 13 13 14 13 13 13 12 12 12 12 12 13 13 13 13 14 14 14 15 15 15 15 16 16 16 16 16 16 17 17 17 17 17 18 18 18 18 19 19 19 19 19 19 19 20 20 20 20
14 14 15 15 15 14 12 10 9 9 9 9 9 10 10 11 11 11 12 13 13 14 14 14 13 13 13 12 12 12 11 10 10 10 10 11 13 14 14 14 14 13 13 12 12 12 12 12 13 13 13 13 14 14 14 15 15 15 15 16 16 16 16 16 16 16 16 17 17 17 17 18 18 18 18 19 19 19 19 19 19 19 19 19 20 20
14 14 14 14 13 11 9 8 8 8 8 9 10 10 10 10 11 11 12 13 13 13 13 13 13 12 12 11 11 11 11 11 11 12 13 15 16 16 16 14 13 12 12 12 12 12 12 13 13 13 13 13 14 14 14 15 15 15 15 15 15 15 16 16 16 16 16 16 17 17 17 17 17 18 18 18 18 18 18 19 19 19 19 19 19 19
12 12 11 11 9 8 7 6 7 7 8 9 10 10 11 11 11 12 12 12 12 12 12 12 12 11 10 10 10 10 11 12 13 15 17 18 18 17 15 13 11 11 11 12 12 12 12 12 13 13 13 14 14 14 15 15 15 15 15 15 15 15 15 15 15 15 16 16 16 16 16 16 17 17 17 17 18 18 18 18 18 19 19 19 19 19
10 9 8 8 7 6 7 7 8 8 9 9 10 10 11 11 12 12 12 12 12 12 12 12 11 10 9 9 10 11 12 13 15 17 18 18 17 14 12 11 10 10 11 12 12 12 12 13 13 13 14 14 15 15 15 15 15 15 15 15 15 15 15 15 15 15 15 15 15 15 16 16 16 16 17 17 17 18 18 18 19 19 19 19 19 20
9 8 7 7 6 6 7 8 8 8 9 9 9 9 10 10 11 12 12 12 12 12 11 10 9 9 9 10 11 12 14 16 17 18 18 15 13 11 9 9 10 10 11 12 12 13 13 13 14 14 15 15 16 16 15 15 15 15 15 15 15 15 15 15 15 15 15 15 15 15 16 16 16 16 17 17 17 18 18 19 19 19 20 20 20 21
6 6 6 6 6 7 7 8 8 8 8 9 9 10 10 11 11 12 13 12 11 10 9 9 9 9 10 11 13 15 16 18 19 18 15 12 9 8 8 9 10 11 12 13 13 14 14 15 16 16 16 16 16 15 15 14 14 14 14 14 14 14 15 15 15 15 15 15 15 16 16 16 16 17 17 18 18 19 19 19 20 20 20 21 21 21
5 5 5 5 6 6 6 7 8 8 8 9 9 10 11 12 12 13 12 11 9 8 7 8 9 10 11 13 15 17 18 19 18 16 13 10 8 9 10 11 12 13 14 15 16 16 17 17 17 17 16 15 14 13 13 13 13 13 13 14 14 14 15 15 15 15 15 16 16 16 17 17 17 18 18 19 19 20 20 20 21 21 21 22 22 22
5 5 5 5 5 6 6 6 7 7 8 9 10 11 11 11 12 12 10 8 7 7 7 8 9 11 12 13 15 17 18 18 16 14 12 11 11 12 13 14 15 16 17 18 18 18 17 16 15 14 13 12 12 11 12 12 12 12 13 14 14 15 15 15 16 16 16 17 17 17 18 18 19 19 19 20 20 20 21 21 21 22 22 22 23 23
5 5 5 6 6 6 7 7 8 8 9 10 11 11 10 9 9 9 8 7 6 7 8 8 10 11 12 13 15 16 16 15 14 13 12 12 13 14 15 17 18 18 19 19 19 17 15 14 13 12 11 11 11 12 12 12 12 12 13 14 15 15 16 16 16 17 17 17 18 18 19 19 19 20 20 20 21 21 21 22 22 22 23 23 23 23
6 6 6 6 7 7 7 8 9 9 10 9 9 8 8 7 7 7 6 6 6 7 8 10 12 13 12 12 13 14 14 12 12 13 14 15 15 15 17 18 19 19 19 19 18 16 13 12 12 12 11 12 12 13 13 13 13 14 15 15 16 16 16 17 17 17 18 18 18 19 19 19 20 20 20 21 21 21 22 22 22 23 23 23 24 24
7 7 7 7 7 8 8 8 8 8 7 6 6 6 6 6 6 5 5 6 7 8 9 11 12 12 12 12 12 12 11 11 12 14 16 18 18 18 18 19 20 20 18 18 16 15 13 12 12 13 13 14 14 14 14 14 14 15 16 16 16 17 17 17 17 17 18 18 18 19 19 19 20 20 21 21 21 22 22 23 23 23 23 24 24 24
8 8 8 8 8 7 7 6 6 5 4 5 5 5 5 5 5 5 5 6 7 7 8 8 8 8 10 12 13 11 11 11 13 16 18 19 19 19 18 18 19 19 19 17 16 15 14 14 14 14 15 15 15 15 14 15 15 16 16 16 17 17 17 17 17 18 18 18 19 19 19 20 20 20 21 21 21 22 22 23 23 23 23 24 24 24
9 9 8 8 7 5 4 4 3 3 3 4 4 4 5 5 5 5 5 6 6 6 7 8 8 8 9 10 11 12 12 13 15 17 19 20 20 19 18 17 18 19 19 18 16 15 15 16 16 16 17 16 16 15 15 15 16 16 16 16 17 17 17 17 18 18 18 19 19 19 19 20 20 20 21 21 21 22 22 22 23 23 23 24 24 24
6 6 5 4 3 2 2 2 2 2 3 3 3 4 4 4 5 5 6 6 7 7 7 8 9 10 11 12 13 13 13 14 15 18 19 19 20 20 18 17 17 18 19 18 17 17 17 17 18 18 18 18 17 17 16 16 16 16 16 17 17 17 18 18 18 18 18 19 19 19 19 19 20 20 20 21 21 22 22 22 23 23 24 24 24 25
3 2 1 1 1 1 1 1 1 2 2 3 3 4 4 4 5 6 7 7 8 8 9 9 10 11 12 12 13 13 14 15 16 18 18 19 19 19 17 16 17 18 19 19 18 18 19 19 19 19 20 19 19 18 17 17 17 17 17 17 18 18 18 18 18 18 18 18 19 19 19 19 19 20 20 21 21 22 22 22 23 23 24 24 25 25
1 1 1 1 1 1 1 1 2 3 3 4 5 5 5 6 6 7 8 9 9 10 10 10 11 12 13 13 14 15 16 16 16 16 16 17 18 18 17 16 16 18 20 20 20 19 20 20 21 21 21 21 20 19 18 18 17 17 18 18 18 18 18 18 18 18 18 18 18 18 19 19 20 20 20 21 21 22 22 22 23 23 24 24 24 25
2 1 2 2 3 3 3 3 4 4 5 6 6 6 7 7 8 8 9 10 10 11 11 12 13 13 14 15 16 17 17 16 16 15 14 14 16 18 17 15 15 17 19 20 21 21 21 22 22 23 22 22 21 20 19 18 18 18 18 18 18 18 18 17 17 17 18 18 18 19 19 19 20 20 21 21 21 22 22 22 22 23 23 24 24 24
3 3 3 3 4 4 5 5 6 6 7 8 8 8 9 9 9 10 10 11 11 12 12 13 14 14 15 16 17 17 17 15 14 13 11 10 13 16 16 15 15 16 19 21 21 22 23 24 24 24 23 23 22 20 20 19 18 18 18 18 17 17 17 17 17 18 18 18 19 19 20 20 20 20 20 20 21 21 21 22 22 22 23 23 24 24
4 4 4 5 5 6 6 7 7 8 9 9 10 10 11 11 11 10 10 11 11 12 12 13 14 15 16 17 17 16 15 13 10 9 9 10 13 16 16 15 15 16 19 20 21 22 24 25 25 25 24 23 22 21 20 19 19 18 18 18 17 17 17 18 18 19 19 19 20 20 20 20 20 20 20 20 20 20 21 21 22 22 22 23 23 24
5 5 5 6 6 7 7 7 8 9 9 10 10 11 11 10 10 10 10 10 11 11 12 13 14 15 15 15 14 14 13 10 8 8 10 10 13 16 16 15 15 16 18 20 21 22 23 25 26 26 25 24 23 21 20 19 19 18 18 18 18 19 19 19 20 20 20 20 20 20 20 19 19 20 20 20 20 20 21 21 22 22 22 23 23 24
4 5 5 6 6 6 7 7 7 8 8 9 9 10 10 9 10 10 10 10 11 11 12 13 13 14 14 13 13 12 11 9 8 8 9 10 12 15 16 15 15 16 18 19 20 21 22 24 26 26 25 24 22 21 20 19 19 19 20 20 21 21 22 22 22 21 21 20 20 19 19 19 19 20 20 20 20 20 21 21 21 22 22 23 23 23
3 3 3 4 5 5 6 7 7 7 7 7 8 9 9 9 10 11 11 11 11 11 11 11 12 12 13 12 12 11 11 10 10 10 11 12 13 14 15 15 15 15 17 19 20 20 21 22 24 25 24 23 21 20 20 20 20 21 22 23 23 23 23 22 22 21 20 20 20 19 20 20 20 20 20 20 20 21 21 21 21 22 22 22 22 22
2 3 3 4 4 5 5 6 6 6 6 7 7 7 8 9 10 11 12 12 11 11 11 11 11 11 11 11 12 13 14 13 13 12 12 12 12 12 14 14 14 15 17 19 20 21 20 20 20 21 21 21 20 20 21 21 22 24 25 25 25 24 23 22 21 21 20 20 20 20 20 20 20 20 20 21 21 21 21 21 21 22 22 22 21 21
6 6 6 6 6 6 6 6 7 7 7 7 7 7 7 8 10 11 12 11 11 11 12 12 12 11 11 13 14 15 15 14 11 9 8 8 9 11 12 13 14 15 17 18 20 19 18 17 16 17 18 19 20 21 22 24 25 26 27 26 25 24 23 22 21 21 21 21 21 21 21 21 21 21 21 21 21 21 21 21 22 22 22 21 21 21
10 10 9 9 8 8 8 8 9 9 9 9 8 8 8 9 10 11 11 11 11 11 12 12 12 12 12 12 12 11 9 6 3 2 3 6 8 10 12 13 14 15 16 15 14 14 15 15 14 13 15 17 20 23 25 26 27 27 27 26 26 24 23 22 22 22 22 22 22 22 22 21 21 21 21 21 22 22 22 22 22 22 21 21 21 21
13 12 10 9 8 8 8 9 10 10 10 10 9 9 9 9 10 11 11 11 11 11 12 12 12 11 10 9 6 4 3 1 1 2 6 8 10 11 13 14 14 15 14 12 9 7 9 13 14 13 15 18 22 25 26 26 26 26 26 27 27 26 24 23 23 23 23 23 23 23 22 22 22 22 22 22 22 22 22 22 22 21 21 21 21 21
13 11 9 8 8 8 8 9 9 9 9 9 8 8 8 9 9 10 10 11 11 11 11 11 11 11 11 10 8 6 7 7 7 8 10 11 12 13 13 13 13 14 13 11 9 7 5 9 14 18 19 20 22 24 25 25 25 25 25 26 26 26 26 24 23 24 24 24 24 24 23 23 23 23 23 23 23 22 22 22 21 20 20 20 21 21
11 9 8 8 8 9 9 9 9 9 8 7 7 7 7 7 8 9 9 9 10 10 11 11 11 12 12 12 13 13 14 14 13 11 11 11 12 12 13 13 13 14 14 13 12 11 10 12 17 21 22 22 22 22 23 24 24 24 24 24 26 27 27 25 25 25 25 25 25 25 25 25 25 24 24 24 23 22 22 21 20 20 19 20 21 21
11 10 9 9 9 10 10 9 8 8 7 7 7 7 7 7 8 8 9 9 9 9 10 11 12 12 12 13 14 15 15 15 13 11 10 11 11 12 13 13 14 14 14 14 13 13 14 16 18 19 20 22 22 21 21 22 23 23 23 24 25 26 27 26 26 26 26 26 27 27 27 26 26 26 25 24 23 22 21 21 20 20 20 20 21 22
11 10 9 9 9 9 8 8 7 6 6 6 7 7 7 7 7 8 8 9 9 10 10 11 12 13 13 13 14 15 15 15 13 12 11 12 12 13 14 14 13 13 13 13 13 13 14 16 17 18 19 21 22 22 21 20 21 22 23 23 24 26 26 27 27 27 27 27 28 28 27 27 27 26 26 25 24 23 22 22 22 22 22 22 22 22
10 9 9 9 8 8 7 7 6 6 6 6 6 6 7 7 7 7 8 9 10 10 11 11 12 13 14 15 16 17 17 17 16 15 13 13 14 14 14 14 14 14 13 14 14 14 15 17 18 19 18 19 20 21 21 20 20 21 23 23 24 25 26 26 26 26 27 27 27 27 27 27 26 26 26 25 24 23 23 23 23 23 23 23 22 22
9 9 8 8 8 7 7 7 7 7 7 7 7 7 7 8 8 9 10 11 12 12 13 14 15 15 16 17 18 19 20 19 18 17 16 16 17 17 17 17 16 16 15 15 15 16 16 17 18 18 18 18 18 19 21 22 22 22 23 24 24 25 26 26 26 26 26 26 27 27 26 26 26 26 26 25 25 25 25 24 24 24 23 23 22 22
8 8 8 7 7 7 7 7 7 8 8 8 9 9 10 10 11 12 13 14 15 16 17 17 18 18 18 18 19 20 20 20 20 20 19 18 19 19 19 19 19 18 17 17 17 17 17 16 16 16 16 18 19 20 22 22 23 24 24 25 25 25 25 25 25 24 24 25 26 26 26 26 26 26 26 27 26 26 26 26 25 24 23 23 23 23
8 8 8 7 7 7 7 8 8 9 9 10 11 11 12 13 13 14 14 15 16 16 16 16 16 16 15 16 16 17 18 19 19 19 18 19 19 19 20 20 20 20 19 19 19 18 18 17 16 16 16 18 21 22 23 22 22 23 25 26 26 26 25 24 23 23 24 25 26 26 26 26 26 26 26 26 26 26 25 25 25 24 24 24 24 24
8 8 8 8 8 8 8 8 9 10 10 11 12 13 13 13 14 14 14 13 13 12 12 12 13 14 14 15 16 16 17 17 18 18 18 18 18 19 20 20 21 21 21 20 20 20 19 19 19 20 20 20 21 23 23 23 23 23 24 24 24 25 24 24 24 24 25 25 25 26 26 26 26 25 25 25 24 24 24 25 25 25 25 24 24 25
8 9 9 9 9 9 9 9 10 10 11 12 13 13 13 12 12 12 12 12 11 11 12 12 13 14 15 16 16 16 16 16 17 17 17 17 18 18 19 20 21 22 21 21 21 20 20 20 21 21 22 22 22 24 25 25 24 24 24 23 24 26 27 26 25 24 24 24 24 24 24 24 24 24 24 24 24 25 25 26 26 27 26 25 25 25
9 9 10 9 9 9 9 9 9 10 11 11 11 11 11 11 11 11 12 12 12 12 12 13 14 15 16 16 16 15 15 15 15 15 16 16 16 17 18 20 21 21 22 21 21 21 21 21 21 22 22 22 22 23 24 25 25 24 23 24 25 27 27 26 24 22 22 22 23 23 23 24 24 24 25 25 25 26 26 26 27 26 26 26 25 25
9 9 9 9 9 8 8 9 9 10 10 10 10 10 10 10 11 11 12 12 13 13 13 13 14 15 15 16 16 15 15 14 14 14 15 15 16 16 17 19 20 21 21 21 21 21 21 21 22 22 23 23 23 23 24 26 26 25 24 24 24 23 22 24 24 23 22 23 24 24 24 24 25 25 25 25 26 26 27 27 27 27 26 26 26 26
8 8 8 8 8 8 9 9 10 10 10 10 10 10 10 10 10 11 12 12 13 13 13 14 14 15 15 15 16 16 16 15 14 14 14 15 15 15 16 17 19 20 21 21 21 21 22 22 22 23 23 23 23 23 24 25 26 26 25 25 24 23 22 24 25 25 25 25 25 24 24 24 25 25 26 26 27 27 27 27 27 27 27 27 27 27
8 8 8 8 8 8 9 10 10 10 10 11 11 11 10 10 10 10 12 13 13 14 14 14 14 14 14 14 15 16 16 16 15 15 14 14 14 15 16 17 18 19 20 22 23 23 22 22 23 23 23 22 23 24 24 25 26 26 26 25 24 24 25 26 26 25 25 25 25 25 25 25 25 26 26 27 27 26 26 26 27 27 27 27 27 27
8 8 8 9 9 10 11 11 11 11 11 11 11 11 10 10 10 11 12 13 13 14 14 13 13 13 13 14 15 16 16 17 17 16 16 15 15 15 16 17 18 19 20 22 23 24 24 24 24 25 24 24 24 25 25 25 25 25 26 25 25 24 25 25 25 24 24 24 25 26 26 26 26 26 25 26 27 27 27 26 26 26 27 26 26 26
8 9 9 10 10 11 11 11 11 11 11 12 12 11 11 11 11 12 12 12 13 13 13 13 13 13 14 15 15 16 16 17 18 18 17 17 17 17 17 18 18 19 20 22 23 24 25 27 27 26 25 24 25 26 26 26 25 24 25 25 25 24 25 25 25 24 24 24 25 26 27 26 26 25 25 26 26 26 26 26 26 26 26 26 25 25
9 9 10 10 11 11 11 11 11 11 12 12 12 12 12 11 11 12 12 12 12 12 12 13 13 14 15 15 16 16 16 17 18 18 18 18 19 18 18 18 19 19 20 21 22 24 25 27 28 28 27 25 25 25 27 26 25 25 25 24 24 24 24 25 25 25 24 25 26 27 27 25 24 24 24 25 25 25 25 26 27 27 27 27 26 25
10 10 10 11 11 11 12 12 12 12 12 12 13 13 12 12 11 11 12 12 13 13 13 13 14 14 15 15 16 16 16 17 18 18 19 19 19 19 19 19 19 19 20 20 21 22 24 25 26 26 27 27 26 26 27 27 26 25 25 24 24 24 24 26 26 25 25 25 26 26 26 25 24 24 24 23 24 25 26 27 27 28 27 27 26 26
11 11 11 11 11 12 12 12 12 12 12 12 13 13 13 12 12 12 12 13 13 13 14 14 14 15 15 16 16 17 17 17 18 19 19 19 19 19 19 19 19 19 19 19 20 20 20 21 22 23 23 24 25 26 26 27 27 26 25 25 24 24 24 25 25 25 25 25 25 25 25 25 24 24 23 22 23 25 26 26 27 28 28 27 26 26
11 11 12 11 11 11 11 12 12 12 12 12 13 13 13 13 13 13 13 13 13 14 14 15 15 15 16 16 17 17 17 17 17 18 19 19 19 19 19 18 18 17 17 18 18 18 17 17 18 19 21 20 20 22 24 25 25 25 25 25 25 24 24 24 25 25 25 25 25 25 25 24 23 23 22 21 22 23 24 25 27 28 28 27 26 26
Wind_Direction
202 206 209 211 212 212 215 218 220 221 222 221 219 216 216 222 230 238 244 250 258 266 273 277 281 284 286 289 291 292 292 291 291 292 293 295 297 298 298 298 298 298 298 297 297 297 298 298 299 299 300 299 299 298 298 298 297 297 296 295 295 294 294 294 294 293 292 292 291 291 290 290 289 289 289 289 288 288 287 287 286 286 286 286 285 284
196 199 199 201 202 203 206 207 207 208 209 210 212 215 221 229 237 244 250 256 263 268 271 274 278 283 286 289 290 290 290 289 289 290 292 294 295 297 298 299 299 299 299 299 299 299 300 300 301 301 301 301 300 300 299 299 298 297 296 295 294 293 293 292 292 292 291 291 290 290 289 289 289 288 288 287 287 286 286 285 285 285 285 284 284 284
182 186 188 189 191 195 198 195 195 199 205 210 218 226 234 241 248 254 258 260 262 265 268 273 278 283 286 288 289 288 287 286 286 287 289 292 294 297 298 300 300 300 300 300 301 302 303 303 303 303 303 302 301 301 300 299 298 297 296 294 293 292 292 291 290 290 289 289 288 288 288 287 287 286 286 286 285 285 285 284 284 284 284 283 283 283
178 182 184 184 187 191 193 191 191 197 208 219 231 241 247 251 255 258 259 258 259 262 267 273 278 282 284 286 286 286 286 285 285 286 288 291 295 298 300 301 302 302 302 303 303 304 305 305 305 304 304 303 302 301 300 298 297 296 295 294 293 292 291 290 289 288 288 287 287 286 286 286 285 285 284 284 284 284 284 283 283 283 283 283 282 282
181 184 185 184 186 190 192 193 195 202 213 226 237 245 249 251 253 255 256 256 258 262 267 271 275 279 281 283 285 285 285 284 284 285 289 293 297 300 302 303 304 305 305 306 306 306 306 306 305 304 304 303 302 301 300 299 298 297 296 295 294 292 291 290 289 288 288 287 286 286 285 284 284 283 283 283 282 282 282 282 282 282 282 282 282 281
183 185 185 184 185 189 193 198 202 208 216 226 235 240 243 245 248 250 252 254 257 261 265 269 273 277 279 281 281 281 279 278 279 281 286 292 297 301 303 304 305 306 307 307 307 307 307 306 306 305 304 303 303 302 301 300 299 299 298 296 295 294 293 292 290 289 288 287 286 284 284 283 283 282 282 281 281 281 281 280 280 280 280 280 280 280
182 186 186 187 190 194 199 205 209 213 220 228 234 237 240 242 245 248 250 253 256 260 264 268 272 274 275 274 272 271 270 270 273 279 286 293 299 302 303 304 305 306 308 308 308 308 307 306 306 305 305 304 304 303 302 302 300 299 298 297 296 294 293 291 290 288 287 286 285 284 283 282 282 281 281 281 280 280 280 280 280 280 280 280 280 280
175 181 186 190 195 201 209 216 219 223 226 231 235 237 239 242 244 246 249 251 254 258 263 268 270 269 266 263 261 263 267 273 279 287 295 300 304 305 305 306 306 307 308 308 308 308 307 307 306 306 305 304 304 303 302 301 300 299 298 297 295 294 292 291 289 288 287 286 285 284 283 282 282 281 281 281 281 280 280 280 280 280 280 281 281 281
163 170 179 187 195 206 217 221 223 225 229 232 235 238 240 241 243 244 246 249 253 258 263 265 264 260 255 255 259 266 273 281 290 298 304 307 308 308 308 308 309 309 309 309 309 308 308 307 307 306 305 304 303 303 302 301 300 299 298 296 295 294 293 292 291 289 288 286 285 284 283 283 282 282 282 282 281 281 281 281 281 281 281 281 281 281
164 167 177 188 199 213 223 222 221 222 227 233 239 242 243 243 243 243 245 248 253 258 260 260 257 255 257 262 268 275 282 290 298 304 308 308 308 309 309 310 311 310 310 309 309 308 306 306 305 305 303 303 303 302 301 300 299 298 297 296 295 295 294 293 291 290 288 287 286 285 284 284 283 283 283 282 282 282 282 282 281 281 281 281 281 281
172 179 188 201 212 221 229 230 228 229 232 237 242 245 246 247 247 247 248 251 253 253 252 252 255 262 270 276 280 285 292 300 305 308 308 307 306 309 310 311 311 309 305 303 301 301 300 300 300 300 300 300 300 300 299 299 298 297 296 295 295 295 294 293 291 290 288 287 286 286 285 285 284 284 283 283 283 282 282 282 282 281 281 281 281 281
187 197 207 217 226 233 237 239 239 239 240 241 243 245 246 248 250 253 253 252 249 245 245 251 260 270 279 286 292 297 303 308 312 313 312 311 312 313 313 310 307 303 299 296 295 295 296 296 297 298 299 300 300 300 300 300 299 298 297 296 296 295 294 292 291 290 289 288 287 286 286 285 285 284 283 283 283 282 282 282 281 281 281 281 280 280
206 214 223 232 237 241 244 246 246 245 244 243 242 244 246 247 248 249 249 246 242 244 253 263 273 280 286 293 300 307 312 314 315 316 316 316 316 315 311 306 302 299 298 297 296 297 299 301 302 303 305 306 308 307 306 305 304 302 300 298 296 294 293 292 291 290 288 288 287 286 285 285 284 284 283 283 282 282 282 281 281 281 280 280 280 280
220 226 233 238 240 242 244 245 245 246 246 246 246 245 243 239 234 232 231 234 242 254 266 277 286 292 297 302 308 313 317 318 317 315 313 312 310 307 304 302 300 299 300 301 302 304 308 310 312 314 315 315 315 315 313 312 310 306 301 297 295 294 293 292 291 289 289 288 287 286 286 285 284 284 283 283 282 282 282 281 281 280 280 280 280 279
225 228 233 236 239 240 242 243 246 248 249 246 242 236 228 218 214 216 223 236 255 270 281 289 295 300 303 308 313 317 319 317 314 312 309 305 302 301 302 302 302 303 304 306 308 312 318 319 320 320 321 321 320 318 316 312 307 302 298 296 294 294 293 292 292 291 290 289 288 287 287 286 285 284 284 283 283 282 282 281 281 280 280 279 279 279
228 228 230 233 237 241 243 244 247 248 245 233 221 212 205 202 209 223 239 257 274 286 296 304 308 309 307 308 313 317 318 314 311 309 308 305 303 303 306 307 307 307 309 310 314 319 324 325 325 324 324 322 321 319 314 308 302 298 296 295 295 294 294 293 293 292 291 290 290 289 288 287 286 285 285 284 283 283 282 281 281 280 280 279 279 278
233 233 233 235 238 241 244 245 245 241 229 212 204 203 207 215 229 246 260 272 286 296 301 306 311 311 307 308 310 313 315 313 310 309 309 306 306 307 310 310 309 309 312 314 317 322 327 327 327 326 324 322 320 316 309 302 298 297 296 296 295 295 295 295 294 293 293 292 292 291 290 289 288 287 286 285 284 283 282 282 281 281 280 280 279 278
237 237 237 237 238 240 241 239 237 230 222 211 211 217 227 237 249 261 272 282 292 301 303 303 302 300 300 302 305 308 312 312 311 311 310 307 307 309 313 312 310 310 313 315 319 324 327 327 326 324 322 319 315 309 304 301 299 297 297 296 296 296 296 296 295 295 294 294 293 292 291 290 289 288 287 286 286 285 284 283 282 281 281 280 280 279
231 231 231 235 239 239 236 230 226 224 224 224 227 234 241 251 261 270 279 288 295 300 301 298 295 292 292 292 296 302 306 307 310 311 311 306 306 309 313 314 313 312 313 315 320 324 326 325 323 321 319 315 312 309 306 303 301 299 298 297 297 297 297 297 297 296 296 295 294 294 293 292 291 290 289 288 287 286 285 284 283 283 282 281 280 280
209 208 211 223 249 263 265 254 248 246 248 254 257 259 261 268 275 281 287 293 298 299 297 292 288 286 289 290 294 298 301 304 309 311 309 304 304 307 313 315 315 313 313 315 319 323 323 321 319 318 316 314 312 310 308 305 302 300 299 298 298 298 298 298 298 298 297 297 296 296 295 294 293 292 291 290 289 288 287 286 285 284 283 282 281 280
201 191 225 251 278 300 306 293 280 275 276 278 281 281 279 282 286 288 291 294 296 296 292 287 283 284 288 290 291 294 298 304 308 309 306 302 301 304 311 315 315 313 311 313 317 320 319 317 316 315 314 314 313 312 309 306 304 302 300 300 299 299 299 299 299 299 299 298 298 297 297 296 294 293 292 291 290 289 288 287 286 285 284 283 282 281
262 269 273 274 283 292 295 293 290 288 287 288 290 289 287 288 289 290 290 291 291 290 287 284 285 287 289 289 290 293 297 301 303 303 300 297 296 299 309 313 313 309 306 309 313 317 317 315 313 314 314 314 314 313 312 309 306 304 302 301 301 301 301 301 301 300 300 300 299 298 297 296 295 294 293 292 291 290 289 288 287 286 285 284 283 282
270 272 277 280 280 282 285 289 291 292 291 291 291 290 290 290 289 288 288 289 289 288 289 289 290 290 288 288 290 294 298 302 302 299 292 286 289 295 305 309 307 303 301 304 310 314 314 314 313 314 315 316 316 315 313 311 308 306 305 304 303 303 303 303 303 302 301 301 300 299 299 297 296 295 294 293 292 291 290 289 288 287 286 285 284 283
273 272 275 277 279 281 285 290 293 295 296 296 295 294 295 294 293 292 291 291 291 290 291 291 291 291 291 292 295 298 303 308 305 294 281 276 283 291 299 303 302 299 298 302 307 311 313 313 313 314 316 317 317 316 315 312 311 309 308 307 306 306 305 305 304 303 303 302 301 300 300 299 298 297 296 295 294 293 292 291 290 289 288 287 286 285
283 281 281 283 285 288 292 294 295 297 298 298 298 297 297 296 295 295 294 292 290 289 290 292 293 294 295 297 299 302 306 311 306 288 276 277 283 289 294 298 299 298 298 302 308 311 312 312 313 314 316 317 317 317 316 314 313 312 310 309 308 308 307 306 305 305 304 304 303 302 301 300 299 298 297 297 296 295 294 293 292 291 290 289 288 287
301 297 295 293 292 289 287 284 285 286 287 290 292 292 293 292 290 287 285 284 285 287 291 294 295 294 295 298 298 300 304 307 300 285 277 280 285 289 292 295 298 298 300 304 308 311 311 310 311 313 315 317 319 319 317 316 314 312 311 309 308 308 307 307 307 307 307 306 305 303 302 301 300 299 298 297 297 296 295 294 294 293 292 292 291 289
336 327 318 307 299 292 287 283 280 278 277 278 281 284 287 287 284 282 279 279 281 285 288 288 289 291 295 296 296 297 301 299 293 284 278 278 281 285 289 296 300 303 304 306 308 309 308 307 308 311 315 318 320 319 317 314 312 310 309 308 309 309 309 309 309 309 309 308 306 304 302 301 300 300 299 298 298 297 296 296 296 295 294 294 293 291
307 302 302 301 300 299 299 294 286 280 280 279 281 283 284 282 280 278 277 279 281 282 280 277 280 287 291 293 295 297 298 295 291 287 282 275 273 278 287 298 306 309 311 311 310 309 307 304 306 311 314 317 317 315 312 309 308 308 308 309 311 311 312 312 311 311 310 308 306 304 303 302 301 300 300 299 298 298 298 298 297 297 296 295 294 292
276 276 277 276 280 284 285 278 274 275 279 287 292 292 286 280 277 276 277 280 281 279 276 275 277 280 286 291 296 299 297 294 293 292 284 276 274 280 293 304 311 315 319 317 316 313 308 305 306 310 312 313 311 308 306 306 307 308 310 312 313 313 313 313 312 311 310 308 307 305 303 302 301 301 300 299 299 299 298 299 299 299 298 296 294 291
281 278 275 271 269 268 268 268 270 274 279 286 291 291 283 277 274 274 277 279 279 277 274 275 277 279 285 295 301 302 298 294 301 323 305 301 294 295 304 309 313 317 323 324 321 316 310 307 307 307 308 306 305 304 304 306 308 311 313 314 315 314 313 313 312 311 309 307 306 305 303 302 301 300 300 299 299 299 299 299 299 299 298 296 293 291
292 291 287 283 279 275 274 274 277 280 282 283 284 282 278 274 272 272 274 276 278 277 275 275 277 279 282 289 295 299 288 273 312 332 323 318 309 304 308 311 313 316 322 325 323 316 311 309 307 306 305 304 304 304 306 308 309 311 312 313 313 312 311 311 310 309 308 307 306 304 303 302 301 300 299 299 299 299 299 299 299 299 297 295 293 291
300 299 299 297 294 291 290 290 291 291 290 288 285 282 280 280 278 278 278 278 278 278 277 275 275 274 273 270 264 259 265 271 284 301 312 313 307 304 307 309 311 313 315 314 306 298 299 303 304 304 305 305 304 304 305 306 307 307 308 309 309 309 309 309 308 307 306 306 305 304 303 301 300 300 300 300 299 299 299 299 298 297 296 294 292 290
300 297 294 293 292 292 293 295 297 297 298 296 294 291 288 287 286 286 284 282 280 277 275 273 272 270 269 266 263 263 266 272 280 291 302 305 305 304 306 307 307 308 309 306 298 289 283 288 296 301 304 303 302 302 302 303 303 304 305 305 305 306 307 307 306 305 304 304 303 303 302 302 301 301 301 301 300 299 298 298 297 295 294 292 290 289
298 293 290 288 288 289 291 294 297 300 301 301 299 296 292 289 287 286 285 282 278 274 270 268 267 267 267 268 269 269 270 273 279 287 294 300 302 302 303 303 304 304 306 304 299 293 287 287 292 298 301 302 301 299 299 300 301 303 303 303 303 303 304 304 304 303 303 302 302 301 301 302 302 302 302 302 301 299 298 297 296 295 293 291 290 290
298 295 293 293 295 297 299 301 304 306 307 305 302 298 293 289 285 283 280 278 275 272 269 267 266 265 266 268 271 273 275 278 282 288 292 296 299 300 300 298 298 300 300 299 298 296 293 292 293 295 298 300 300 299 298 298 300 302 302 301 300 300 300 301 301 301 301 301 300 300 300 301 301 302 301 301 300 299 297 297 295 294 292 290 289 289
298 298 300 303 306 309 311 314 315 314 311 307 303 299 294 288 283 278 274 271 269 268 268 267 267 266 266 266 269 272 276 281 285 289 291 292 293 294 293 291 291 293 292 292 292 292 292 293 294 294 295 296 298 299 300 300 301 301 300 299 298 298 297 298 298 298 298 298 298 298 299 299 300 300 299 299 298 297 296 295 294 292 291 290 288 286
297 300 304 309 313 316 317 317 317 316 311 306 300 294 291 286 281 277 272 269 267 266 266 265 265 264 264 265 268 272 276 281 284 286 287 287 287 285 283 283 285 286 283 284 286 288 289 292 294 294 293 291 292 296 300 303 303 302 299 299 298 298 297 297 297 297 296 295 295 296 297 297 297 297 296 296 296 296 295 294 294 293 293 291 289 287
297 301 306 311 314 315 315 314 314 312 309 304 299 293 289 286 282 280 277 275 272 271 270 268 267 267 267 268 270 273 277 280 283 284 285 285 284 282 279 279 280 280 278 277 279 282 284 287 290 292 292 290 290 292 296 300 301 301 299 299 298 297 296 296 297 297 296 295 294 294 294 294 294 294 294 295 295 296 295 295 296 296 295 293 291 288
298 302 305 309 310 310 311 311 310 308 304 300 296 293 290 288 286 284 283 281 280 279 279 280 280 281 282 282 282 281 281 282 284 286 286 286 284 281 278 276 276 277 278 276 275 275 276 277 280 284 287 290 291 293 294 295 296 297 299 300 299 297 296 296 297 296 295 294 293 293 293 293 293 293 293 294 295 295 295 295 295 295 294 293 292 291
300 302 302 303 303 303 304 306 305 303 301 298 296 294 293 293 293 293 293 292 292 293 295 297 297 297 296 293 291 289 288 288 288 288 288 288 287 284 280 277 276 277 278 277 275 273 272 272 274 276 279 283 287 290 292 292 292 294 296 298 297 296 296 296 296 295 293 292 291 291 291 292 293 293 293 293 293 292 292 292 292 293 292 291 290 290
301 301 300 300 300 301 302 302 302 302 301 299 299 301 303 305 308 309 309 308 306 305 304 303 303 302 299 296 293 292 292 291 290 289 289 289 288 286 283 279 277 277 277 276 274 271 269 270 272 275 276 278 281 285 287 288 289 290 292 291 290 292 294 294 294 293 293 291 291 291 291 292 292 292 292 291 291 290 289 289 290 290 290 289 286 284
299 301 302 304 305 306 304 302 302 302 303 304 306 309 311 312 311 310 309 308 307 307 306 306 305 303 300 298 296 294 293 292 291 291 290 289 288 286 283 281 279 277 276 275 273 271 269 269 270 273 275 277 279 281 284 285 286 286 285 285 287 291 293 293 292 292 292 291 291 291 291 291 291 291 291 291 290 290 289 288 288 288 286 285 282 280
299 303 307 310 311 310 308 307 306 305 304 304 304 305 306 306 306 306 305 304 304 305 307 308 306 303 300 299 299 298 297 295 293 291 290 290 288 286 283 282 280 278 275 273 272 272 272 271 270 270 272 275 276 278 281 283 285 285 283 283 285 288 291 292 293 293 292 291 291 291 291 290 290 290 291 290 289 289 288 287 287 286 282 280 279 277
307 310 313 314 315 314 313 313 312 310 309 307 305 303 303 305 306 306 305 303 303 305 307 308 307 304 300 298 299 300 301 300 297 294 291 289 288 286 284 282 280 279 276 271 270 272 274 274 273 272 273 274 274 275 277 280 283 283 283 283 282 281 281 285 290 293 293 292 291 290 290 290 291 291 291 289 288 287 287 286 285 283 281 280 278 277
311 311 312 313 313 313 313 311 312 312 312 310 308 307 308 310 311 309 306 303 303 305 306 306 305 302 299 298 299 302 303 302 300 297 293 291 289 286 284 282 281 279 276 272 269 268 270 272 274 275 276 274 273 273 274 277 279 282 282 283 282 280 279 282 285 288 290 290 290 290 291 291 292 291 290 289 287 286 285 284 283 282 282 281 279 277
301 302 303 303 304 306 308 310 311 313 313 312 312 312 314 316 314 310 306 303 302 303 303 304 301 296 294 297 300 302 302 302 301 299 297 294 292 290 288 285 283 281 278 274 271 269 268 268 271 275 278 277 275 274 273 274 276 279 281 282 283 283 282 283 284 285 286 287 288 289 291 292 291 289 287 286 286 286 285 284 282 281 281 280 279 276
292 295 297 301 305 309 311 314 315 315 314 314 313 314 315 315 313 309 306 304 302 302 302 302 298 293 290 292 295 296 297 297 298 298 298 296 296 295 292 290 288 285 281 277 274 272 269 268 269 270 271 274 275 276 275 274 274 276 279 281 283 283 284 284 284 285 285 285 286 287 290 290 288 286 284 284 284 284 284 284 283 281 281 280 279 278
292 294 297 303 308 311 314 316 317 317 315 313 313 313 313 313 310 306 303 302 302 300 300 298 294 292 290 289 289 289 290 290 291 293 294 294 295 296 294 293 291 288 285 281 278 275 272 271 269 267 266 266 269 272 275 276 275 275 277 279 281 281 282 283 285 286 286 285 284 285 286 285 283 282 283 283 284 284 284 284 284 284 282 281 280 279
289 292 295 301 306 311 313 315 316 315 313 311 310 310 311 311 308 303 300 300 298 296 294 292 290 289 287 286 286 286 286 285 286 287 289 291 293 294 294 293 293 291 289 286 282 280 278 275 272 268 264 261 262 266 271 274 275 275 276 277 277 279 281 283 284 286 286 285 285 285 285 283 281 280 280 280 282 284 285 285 285 285 284 283 281 279
289 291 294 299 304 307 310 312 312 311 308 307 306 306 307 308 306 304 301 298 295 292 288 286 285 285 284 284 285 285 284 284 283 284 285 288 290 291 291 292 293 293 292 291 290 288 286 284 281 276 269 263 260 261 266 270 274 276 277 276 276 277 279 281 284 285 286 286 287 287 286 284 283 281 279 279 280 283 284 285 286 286 285 285 283 281
291 293 296 300 303 305 306 307 306 305 303 302 302 303 303 304 304 303 300 297 293 289 286 284 282 281 281 282 283 283 282 281 281 282 284 287 289 289 289 290 290 290 291 293 294 294 293 292 290 287 283 274 265 261 263 267 272 276 278 277 278 278 280 281 283 285 286 287 287 288 287 286 285 283 282 281 282 284 285 286 286 286 286 286 285 283